Time,TemperatureF,DewpointF,PressureIn,WindDirection,WindDirectionDegrees,WindSpeedMPH,WindSpeedGustMPH,Humidity,HourlyPrecipIn,Conditions,Clouds,dailyrainin,SolarRadiationWatts/m^2,SoftwareType,DateUTC
2013-02-05 00:00:00,51.9,45.6,30.04,NE,44,0.0,0.0,79,0.00,,,0.00,0,Wunderground v.1.15,2013-02-05 08:00:00,
2013-02-05 00:05:00,51.8,45.5,30.04,NE,44,0.0,0.0,79,0.00,,,0.00,0,Wunderground v.1.15,2013-02-05 08:05:00,
2013-02-05 00:15:00,51.6,45.3,30.03,NE,44,0.0,0.0,79,0.00,,,0.00,0,Wunderground v.1.15,2013-02-05 08:15:00,
2013-02-05 00:20:00,51.5,45.2,30.03,NE,44,0.0,0.0,79,0.00,,,0.00,0,Wunderground v.1.15,2013-02-05 08:20:00,
2013-02-05 00:25:00,51.5,45.2,30.03,NE,44,0.0,0.0,79,0.00,,,0.00,0,Wunderground v.1.15,2013-02-05 08:25:00,
2013-02-05 00:35:00,51.3,45.0,30.03,NE,44,0.0,0.0,79,0.00,,,0.00,0,Wunderground v.1.15,2013-02-05 08:35:00,
2013-02-05 00:40:00,51.1,44.8,30.03,NE,44,0.0,0.0,79,0.00,,,0.00,0,Wunderground v.1.15,2013-02-05 08:40:00,
2013-02-05 00:45:00,51.0,44.7,30.03,NE,44,0.0,0.0,79,0.00,,,0.00,0,Wunderground v.1.15,2013-02-05 08:45:00,
2013-02-05 00:55:00,51.1,44.8,30.02,NE,44,0.0,0.0,79,0.00,,,0.00,0,Wunderground v.1.15,2013-02-05 08:55:00,
2013-02-05 01:00:00,51.0,44.7,30.02,NE,44,0.0,0.0,79,0.00,,,0.00,0,Wunderground v.1.15,2013-02-05 09:00:00,
2013-02-05 01:05:00,51.0,44.7,30.02,NE,44,0.0,0.0,79,0.00,,,0.00,0,Wunderground v.1.15,2013-02-05 09:05:00,
2013-02-05 01:15:00,50.8,44.5,30.02,NE,44,0.0,0.0,79,0.00,,,0.00,0,Wunderground v.1.15,2013-02-05 09:15:00,
2013-02-05 01:25:00,50.4,44.8,30.02,NE,44,0.0,0.0,81,0.00,,,0.00,0,Wunderground v.1.15,2013-02-05 09:25:00,
2013-02-05 01:35:00,50.3,45.0,30.02,NE,44,0.0,1.0,82,0.00,,,0.00,0,Wunderground v.1.15,2013-02-05 09:35:00,
2013-02-05 01:40:00,50.3,45.0,30.02,NE,44,0.0,0.0,82,0.00,,,0.00,0,Wunderground v.1.15,2013-02-05 09:40:00,
2013-02-05 01:50:00,50.3,45.0,30.02,NE,44,0.0,0.0,82,0.00,,,0.00,0,Wunderground v.1.15,2013-02-05 09:50:00,
2013-02-05 02:00:00,50.2,44.9,30.02,NE,44,0.0,0.0,82,0.00,,,0.00,0,Wunderground v.1.15,2013-02-05 10:00:00,
2013-02-05 02:05:00,50.1,44.8,30.02,NE,44,0.0,0.0,82,0.00,,,0.00,0,Wunderground v.1.15,2013-02-05 10:05:00,
2013-02-05 02:15:00,50.0,45.0,30.02,NE,44,0.0,0.0,83,0.00,,,0.00,0,Wunderground v.1.15,2013-02-05 10:15:00,
2013-02-05 02:25:00,49.8,44.8,30.02,NE,44,0.0,0.0,83,0.00,,,0.00,0,Wunderground v.1.15,2013-02-05 10:25:00,
2013-02-05 02:30:00,49.8,44.5,30.01,NE,44,0.0,0.0,82,0.00,,,0.00,0,Wunderground v.1.15,2013-02-05 10:30:00,
2013-02-05 02:35:00,49.8,44.5,30.01,NE,44,0.0,0.0,82,0.00,,,0.00,0,Wunderground v.1.15,2013-02-05 10:35:00,
2013-02-05 02:45:00,49.9,44.6,30.01,NE,44,0.0,0.0,82,0.00,,,0.00,0,Wunderground v.1.15,2013-02-05 10:45:00,
2013-02-05 02:55:00,50.2,44.9,30.01,NE,44,0.0,0.0,82,0.00,,,0.00,0,Wunderground v.1.15,2013-02-05 10:55:00,
2013-02-05 03:00:00,50.2,44.9,30.00,North,357,0.0,0.0,82,0.00,,,0.00,0,Wunderground v.1.15,2013-02-05 11:00:00,
2013-02-05 03:05:00,50.1,44.8,30.00,North,357,0.0,0.0,82,0.00,,,0.00,0,Wunderground v.1.15,2013-02-05 11:05:00,
2013-02-05 03:15:00,50.0,44.7,30.00,North,357,1.0,1.0,82,0.00,,,0.00,0,Wunderground v.1.15,2013-02-05 11:15:00,
2013-02-05 03:20:00,50.0,44.7,30.00,North,357,2.0,2.0,82,0.00,,,0.00,0,Wunderground v.1.15,2013-02-05 11:20:00,
2013-02-05 03:30:00,50.0,44.7,30.00,North,358,0.0,0.0,82,0.00,,,0.00,0,Wunderground v.1.15,2013-02-05 11:30:00,
2013-02-05 03:40:00,50.1,44.8,30.00,North,357,0.0,0.0,82,0.00,,,0.00,0,Wunderground v.1.15,2013-02-05 11:40:00,
2013-02-05 03:50:00,50.1,44.8,30.00,North,357,0.0,0.0,82,0.00,,,0.00,0,Wunderground v.1.15,2013-02-05 11:50:00,
2013-02-05 04:00:00,50.2,44.9,29.99,North,357,0.0,0.0,82,0.00,,,0.00,0,Wunderground v.1.15,2013-02-05 12:00:00,
2013-02-05 04:05:00,50.3,45.0,30.00,North,357,0.0,0.0,82,0.00,,,0.00,0,Wunderground v.1.15,2013-02-05 12:05:00,
2013-02-05 04:15:00,50.3,45.0,30.00,North,357,0.0,0.0,82,0.00,,,0.00,0,Wunderground v.1.15,2013-02-05 12:15:00,
2013-02-05 04:25:00,50.4,44.8,30.00,North,357,0.0,0.0,81,0.00,,,0.00,0,Wunderground v.1.15,2013-02-05 12:25:00,
2013-02-05 04:35:00,50.3,44.7,29.99,North,357,0.0,0.0,81,0.00,,,0.00,0,Wunderground v.1.15,2013-02-05 12:35:00,
2013-02-05 04:45:00,50.4,44.8,29.99,North,357,0.0,0.0,81,0.00,,,0.00,0,Wunderground v.1.15,2013-02-05 12:45:00,
2013-02-05 04:50:00,50.4,44.8,29.99,North,357,0.0,0.0,81,0.00,,,0.00,0,Wunderground v.1.15,2013-02-05 12:50:00,
2013-02-05 05:00:00,50.3,44.7,29.99,North,357,0.0,0.0,81,0.00,,,0.00,0,Wunderground v.1.15,2013-02-05 13:00:00,
2013-02-05 05:05:00,50.2,44.6,29.99,North,357,0.0,0.0,81,0.00,,,0.00,0,Wunderground v.1.15,2013-02-05 13:05:00,
2013-02-05 05:15:00,50.2,44.6,29.99,North,357,0.0,0.0,81,0.00,,,0.00,0,Wunderground v.1.15,2013-02-05 13:15:00,
2013-02-05 05:25:00,50.2,44.6,29.99,North,357,0.0,0.0,81,0.00,,,0.00,0,Wunderground v.1.15,2013-02-05 13:25:00,
2013-02-05 05:30:00,50.2,44.6,29.99,North,357,0.0,0.0,81,0.00,,,0.00,0,Wunderground v.1.15,2013-02-05 13:30:00,
2013-02-05 05:35:00,50.1,44.5,29.99,North,357,0.0,0.0,81,0.00,,,0.00,0,Wunderground v.1.15,2013-02-05 13:35:00,
2013-02-05 05:45:00,50.1,44.5,30.00,North,357,0.0,0.0,81,0.00,,,0.00,0,Wunderground v.1.15,2013-02-05 13:45:00,
2013-02-05 05:55:00,50.1,44.5,30.00,North,357,0.0,0.0,81,0.00,,,0.00,0,Wunderground v.1.15,2013-02-05 13:55:00,
2013-02-05 06:00:00,50.1,44.5,30.00,North,357,0.0,0.0,81,0.00,,,0.00,0,Wunderground v.1.15,2013-02-05 14:00:00,
2013-02-05 06:05:00,50.0,44.7,30.00,North,357,0.0,0.0,82,0.00,,,0.00,0,Wunderground v.1.15,2013-02-05 14:05:00,
2013-02-05 06:15:00,50.1,44.8,30.00,North,358,0.0,0.0,82,0.00,,,0.00,0,Wunderground v.1.15,2013-02-05 14:15:00,
2013-02-05 06:25:00,50.1,44.8,30.01,North,357,0.0,0.0,82,0.00,,,0.00,0,Wunderground v.1.15,2013-02-05 14:25:00,
2013-02-05 06:35:00,50.1,44.8,30.02,North,357,0.0,0.0,82,0.00,,,0.00,0,Wunderground v.1.15,2013-02-05 14:35:00,
2013-02-05 06:40:00,50.1,44.8,30.02,North,357,0.0,0.0,82,0.00,,,0.00,0,Wunderground v.1.15,2013-02-05 14:40:00,
2013-02-05 06:50:00,50.1,44.8,30.03,North,357,0.0,0.0,82,0.00,,,0.00,0,Wunderground v.1.15,2013-02-05 14:50:00,
2013-02-05 06:59:00,50.2,44.9,30.03,North,357,0.0,0.0,82,0.00,,,0.00,0,Wunderground v.1.15,2013-02-05 14:59:00,
2013-02-05 07:05:00,50.2,44.6,30.03,North,357,0.0,0.0,81,0.00,,,0.00,0,Wunderground v.1.15,2013-02-05 15:05:00,
2013-02-05 07:15:00,50.2,44.9,30.04,North,357,0.0,0.0,82,0.00,,,0.00,0,Wunderground v.1.15,2013-02-05 15:15:00,
2013-02-05 07:20:00,50.2,44.6,30.04,North,357,0.0,0.0,81,0.00,,,0.00,0,Wunderground v.1.15,2013-02-05 15:20:00,
2013-02-05 07:30:00,50.1,44.8,30.05,North,358,0.0,0.0,82,0.00,,,0.00,0,Wunderground v.1.15,2013-02-05 15:30:00,
2013-02-05 07:35:00,50.1,44.8,30.05,North,357,0.0,0.0,82,0.00,,,0.00,0,Wunderground v.1.15,2013-02-05 15:35:00,
2013-02-05 07:40:00,50.0,44.4,30.05,North,357,0.0,0.0,81,0.00,,,0.00,0,Wunderground v.1.15,2013-02-05 15:40:00,
2013-02-05 07:50:00,49.8,44.5,30.05,North,357,0.0,0.0,82,0.00,,,0.00,0,Wunderground v.1.15,2013-02-05 15:50:00,
2013-02-05 08:00:00,49.4,44.1,30.06,North,357,0.0,0.0,82,0.00,,,0.00,0,Wunderground v.1.15,2013-02-05 16:00:00,
2013-02-05 08:05:00,49.3,44.0,30.05,North,357,0.0,0.0,82,0.00,,,0.00,0,Wunderground v.1.15,2013-02-05 16:05:00,
2013-02-05 08:15:00,49.3,44.0,30.05,North,8,0.0,0.0,82,0.00,,,0.00,0,Wunderground v.1.15,2013-02-05 16:15:00,
2013-02-05 08:25:00,49.3,44.4,30.05,NNE,14,0.0,0.0,83,0.00,,,0.00,0,Wunderground v.1.15,2013-02-05 16:25:00,
2013-02-05 08:35:00,49.2,43.9,30.06,NNE,14,0.0,0.0,82,0.00,,,0.00,0,Wunderground v.1.15,2013-02-05 16:35:00,
2013-02-05 08:45:00,49.4,44.5,30.07,NNE,14,0.0,0.0,83,0.00,,,0.00,0,Wunderground v.1.15,2013-02-05 16:45:00,
2013-02-05 08:54:00,49.4,44.5,30.07,NNE,14,0.0,0.0,83,0.00,,,0.00,0,Wunderground v.1.15,2013-02-05 16:54:00,
2013-02-05 09:00:00,49.3,44.4,30.07,NNE,14,0.0,0.0,83,0.00,,,0.00,0,Wunderground v.1.15,2013-02-05 17:00:00,
2013-02-05 09:05:00,49.5,44.6,30.07,NNE,14,0.0,0.0,83,0.00,,,0.00,0,Wunderground v.1.15,2013-02-05 17:05:00,
2013-02-05 09:15:00,49.7,44.7,30.07,NNE,14,0.0,0.0,83,0.00,,,0.00,0,Wunderground v.1.15,2013-02-05 17:15:00,
2013-02-05 09:20:00,49.7,44.7,30.07,NNE,14,1.0,1.0,83,0.00,,,0.00,0,Wunderground v.1.15,2013-02-05 17:20:00,
2013-02-05 09:30:00,50.0,45.0,30.07,NNE,14,0.0,0.0,83,0.00,,,0.00,0,Wunderground v.1.15,2013-02-05 17:30:00,
2013-02-05 09:35:00,50.0,45.0,30.08,NNE,14,0.0,0.0,83,0.00,,,0.00,0,Wunderground v.1.15,2013-02-05 17:35:00,
2013-02-05 09:45:00,50.2,45.2,30.08,NNE,14,0.0,0.0,83,0.00,,,0.00,0,Wunderground v.1.15,2013-02-05 17:45:00,
2013-02-05 09:50:00,50.5,45.5,30.08,NNE,14,0.0,0.0,83,0.00,,,0.00,0,Wunderground v.1.15,2013-02-05 17:50:00,
2013-02-05 10:00:00,50.8,45.8,30.08,NNE,14,0.0,0.0,83,0.00,,,0.00,0,Wunderground v.1.15,2013-02-05 18:00:00,
2013-02-05 10:05:00,50.9,45.9,30.08,NNE,14,0.0,0.0,83,0.00,,,0.00,0,Wunderground v.1.15,2013-02-05 18:05:00,
2013-02-05 10:10:00,51.2,46.2,30.08,NNE,14,0.0,0.0,83,0.00,,,0.00,0,Wunderground v.1.15,2013-02-05 18:10:00,
2013-02-05 10:20:00,51.4,46.4,30.08,NNE,14,0.0,0.0,83,0.00,,,0.00,0,Wunderground v.1.15,2013-02-05 18:20:00,
2013-02-05 10:25:00,51.6,46.6,30.08,NNE,14,0.0,0.0,83,0.00,,,0.00,0,Wunderground v.1.15,2013-02-05 18:25:00,
2013-02-05 10:35:00,52.0,47.0,30.08,NNE,14,0.0,0.0,83,0.00,,,0.00,0,Wunderground v.1.15,2013-02-05 18:35:00,
2013-02-05 10:45:00,51.9,46.9,30.09,NNE,14,2.0,2.0,83,0.00,,,0.00,0,Wunderground v.1.15,2013-02-05 18:45:00,
2013-02-05 10:55:00,51.8,46.8,30.08,NNE,14,0.0,1.0,83,0.00,,,0.00,0,Wunderground v.1.15,2013-02-05 18:55:00,
2013-02-05 11:05:00,51.8,46.5,30.08,NNE,14,0.0,0.0,82,0.00,,,0.00,0,Wunderground v.1.15,2013-02-05 19:05:00,
2013-02-05 11:15:00,51.8,46.5,30.07,NNE,14,1.0,1.0,82,0.00,,,0.00,0,Wunderground v.1.15,2013-02-05 19:15:00,
2013-02-05 11:25:00,51.7,46.4,30.06,NNE,14,1.0,1.0,82,0.00,,,0.00,0,Wunderground v.1.15,2013-02-05 19:25:00,
2013-02-05 11:35:00,51.7,46.4,30.06,NNE,14,0.0,0.0,82,0.00,,,0.00,0,Wunderground v.1.15,2013-02-05 19:35:00,
2013-02-05 11:45:00,51.8,46.5,30.05,NNE,14,0.0,0.0,82,0.00,,,0.00,0,Wunderground v.1.15,2013-02-05 19:45:00,
2013-02-05 11:50:00,51.9,46.6,30.05,NNE,14,0.0,0.0,82,0.00,,,0.00,0,Wunderground v.1.15,2013-02-05 19:50:00,
2013-02-05 11:59:00,51.8,46.5,30.05,NNE,14,0.0,0.0,82,0.00,,,0.00,0,Wunderground v.1.15,2013-02-05 19:59:00,
2013-02-05 12:05:00,51.8,46.5,30.04,NNE,14,2.0,2.0,82,0.00,,,0.00,0,Wunderground v.1.15,2013-02-05 20:05:00,
2013-02-05 12:10:00,52.1,46.8,30.03,NNE,14,0.0,0.0,82,0.00,,,0.00,0,Wunderground v.1.15,2013-02-05 20:10:00,
2013-02-05 12:20:00,52.5,46.8,30.03,NNE,15,0.0,0.0,81,0.00,,,0.00,0,Wunderground v.1.15,2013-02-05 20:20:00,
2013-02-05 12:30:00,52.7,46.7,30.02,NNE,15,0.0,0.0,80,0.00,,,0.00,0,Wunderground v.1.15,2013-02-05 20:30:00,
2013-02-05 12:35:00,53.0,47.0,30.02,NNE,15,0.0,0.0,80,0.00,,,0.00,0,Wunderground v.1.15,2013-02-05 20:35:00,
2013-02-05 12:45:00,53.2,46.9,30.01,NNE,15,0.0,0.0,79,0.00,,,0.00,0,Wunderground v.1.15,2013-02-05 20:45:00,
2013-02-05 12:50:00,53.2,46.5,30.01,NNE,15,0.0,0.0,78,0.00,,,0.00,0,Wunderground v.1.15,2013-02-05 20:50:00,
2013-02-05 13:00:00,53.3,46.3,30.01,NNE,15,0.0,0.0,77,0.00,,,0.00,0,Wunderground v.1.15,2013-02-05 21:00:00,
2013-02-05 13:05:00,53.7,46.7,30.00,NNE,15,0.0,0.0,77,0.00,,,0.00,0,Wunderground v.1.15,2013-02-05 21:05:00,
2013-02-05 13:15:00,53.9,46.5,30.01,NNE,15,0.0,0.0,76,0.00,,,0.00,0,Wunderground v.1.15,2013-02-05 21:15:00,
2013-02-05 13:24:00,53.9,46.2,30.00,NNE,17,0.0,1.0,75,0.00,,,0.00,0,Wunderground v.1.15,2013-02-05 21:24:00,
2013-02-05 13:30:00,53.7,46.0,30.00,South,180,3.0,3.0,75,0.00,,,0.00,0,Wunderground v.1.15,2013-02-05 21:30:00,
2013-02-05 13:35:00,53.5,45.8,30.00,South,185,0.0,3.0,75,0.00,,,0.00,0,Wunderground v.1.15,2013-02-05 21:35:00,
2013-02-05 13:45:00,53.1,45.4,30.00,SW,236,0.0,2.0,75,0.00,,,0.00,0,Wunderground v.1.15,2013-02-05 21:45:00,
2013-02-05 13:55:00,52.9,45.5,29.99,SW,236,0.0,0.0,76,0.00,,,0.00,0,Wunderground v.1.15,2013-02-05 21:55:00,
2013-02-05 14:05:00,53.2,45.8,29.99,SW,236,0.0,0.0,76,0.00,,,0.00,0,Wunderground v.1.15,2013-02-05 22:05:00,
2013-02-05 14:10:00,53.4,46.0,29.99,SW,236,0.0,0.0,76,0.00,,,0.00,0,Wunderground v.1.15,2013-02-05 22:10:00,
2013-02-05 14:19:00,53.7,46.3,29.98,SW,236,0.0,0.0,76,0.00,,,0.00,0,Wunderground v.1.15,2013-02-05 22:19:00,
2013-02-05 14:25:00,53.9,46.2,29.98,SW,236,0.0,0.0,75,0.00,,,0.00,0,Wunderground v.1.15,2013-02-05 22:25:00,
2013-02-05 14:35:00,54.2,46.4,29.97,SW,236,0.0,0.0,75,0.00,,,0.00,0,Wunderground v.1.15,2013-02-05 22:35:00,
2013-02-05 14:40:00,54.2,45.7,29.97,SW,236,0.0,0.0,73,0.00,,,0.00,0,Wunderground v.1.15,2013-02-05 22:40:00,
2013-02-05 14:49:00,54.3,45.8,29.97,SW,236,0.0,0.0,73,0.00,,,0.00,0,Wunderground v.1.15,2013-02-05 22:49:00,
2013-02-05 14:55:00,54.5,45.7,29.97,SW,236,0.0,0.0,72,0.00,,,0.00,0,Wunderground v.1.15,2013-02-05 22:55:00,
2013-02-05 15:05:00,54.7,45.8,29.97,SW,236,0.0,0.0,72,0.00,,,0.00,0,Wunderground v.1.15,2013-02-05 23:05:00,
2013-02-05 15:15:00,55.1,45.9,29.97,SW,236,0.0,0.0,71,0.00,,,0.00,0,Wunderground v.1.15,2013-02-05 23:15:00,
2013-02-05 15:25:00,54.5,45.7,29.96,SE,146,1.0,1.0,72,0.00,,,0.00,0,Wunderground v.1.15,2013-02-05 23:25:00,
2013-02-05 15:35:00,54.1,45.6,29.97,South,189,0.0,0.0,73,0.00,,,0.00,0,Wunderground v.1.15,2013-02-05 23:35:00,
2013-02-05 15:45:00,54.0,45.5,29.96,South,189,1.0,1.0,73,0.00,,,0.00,0,Wunderground v.1.15,2013-02-05 23:45:00,
2013-02-05 15:55:00,53.9,45.4,29.96,South,189,0.0,1.0,73,0.00,,,0.00,0,Wunderground v.1.15,2013-02-05 23:55:00,
2013-02-05 16:05:00,53.9,45.4,29.97,SW,215,2.0,2.0,73,0.00,,,0.00,0,Wunderground v.1.15,2013-02-06 00:05:00,
2013-02-05 16:15:00,53.7,45.2,29.98,SW,229,0.0,2.0,73,0.00,,,0.00,0,Wunderground v.1.15,2013-02-06 00:15:00,
2013-02-05 16:20:00,53.5,45.1,29.98,SW,220,0.0,0.0,73,0.00,,,0.00,0,Wunderground v.1.15,2013-02-06 00:20:00,
2013-02-05 16:25:00,53.4,45.3,29.98,SW,222,1.0,1.0,74,0.00,,,0.00,0,Wunderground v.1.15,2013-02-06 00:25:00,
2013-02-05 16:35:00,53.4,45.3,29.98,SW,222,0.0,0.0,74,0.00,,,0.00,0,Wunderground v.1.15,2013-02-06 00:35:00,
2013-02-05 16:45:00,53.3,44.9,29.98,SW,222,0.0,0.0,73,0.00,,,0.00,0,Wunderground v.1.15,2013-02-06 00:45:00,
2013-02-05 16:50:00,53.2,44.8,29.98,SW,222,0.0,0.0,73,0.00,,,0.00,0,Wunderground v.1.15,2013-02-06 00:50:00,
2013-02-05 16:55:00,53.1,44.7,29.98,SW,222,1.0,1.0,73,0.00,,,0.00,0,Wunderground v.1.15,2013-02-06 00:55:00,
2013-02-05 17:00:00,53.0,44.6,29.98,SSE,167,0.0,0.0,73,0.00,,,0.00,0,Wunderground v.1.15,2013-02-06 01:00:00,
2013-02-05 17:05:00,53.0,44.6,29.98,SSW,203,1.0,1.0,73,0.00,,,0.00,0,Wunderground v.1.15,2013-02-06 01:05:00,
2013-02-05 17:15:00,52.8,44.7,29.98,SSW,204,0.0,1.0,74,0.00,,,0.00,0,Wunderground v.1.15,2013-02-06 01:15:00,
2013-02-05 17:20:00,52.7,44.6,29.98,SSW,204,0.0,0.0,74,0.00,,,0.00,0,Wunderground v.1.15,2013-02-06 01:20:00,
2013-02-05 17:25:00,52.7,44.6,29.98,SSW,204,0.0,0.0,74,0.00,,,0.00,0,Wunderground v.1.15,2013-02-06 01:25:00,
2013-02-05 17:35:00,52.6,44.5,29.99,SSW,205,0.0,3.0,74,0.00,,,0.00,0,Wunderground v.1.15,2013-02-06 01:35:00,
2013-02-05 17:40:00,52.6,44.5,29.99,SSW,205,0.0,0.0,74,0.00,,,0.00,0,Wunderground v.1.15,2013-02-06 01:40:00,
2013-02-05 17:50:00,52.6,44.5,29.98,SSW,205,0.0,0.0,74,0.00,,,0.00,0,Wunderground v.1.15,2013-02-06 01:50:00,
2013-02-05 17:55:00,52.5,44.4,29.98,SSW,205,1.0,1.0,74,0.00,,,0.00,0,Wunderground v.1.15,2013-02-06 01:55:00,
2013-02-05 18:00:00,52.4,44.4,29.98,SSW,205,1.0,1.0,74,0.00,,,0.00,0,Wunderground v.1.15,2013-02-06 02:00:00,
2013-02-05 18:05:00,52.4,44.4,29.98,SSW,205,0.0,1.0,74,0.00,,,0.00,0,Wunderground v.1.15,2013-02-06 02:05:00,
2013-02-05 18:15:00,52.4,44.4,29.99,SSW,205,0.0,0.0,74,0.00,,,0.00,0,Wunderground v.1.15,2013-02-06 02:15:00,
2013-02-05 18:25:00,52.5,44.8,29.99,SSW,205,0.0,0.0,75,0.00,,,0.00,0,Wunderground v.1.15,2013-02-06 02:25:00,
2013-02-05 18:30:00,52.5,44.4,29.99,SSW,205,0.0,0.0,74,0.00,,,0.00,0,Wunderground v.1.15,2013-02-06 02:30:00,
2013-02-05 18:40:00,52.6,44.5,29.99,SSW,205,0.0,0.0,74,0.00,,,0.00,0,Wunderground v.1.15,2013-02-06 02:40:00,
2013-02-05 18:45:00,52.6,44.5,30.00,SSW,205,0.0,0.0,74,0.00,,,0.00,0,Wunderground v.1.15,2013-02-06 02:45:00,
2013-02-05 18:54:00,52.6,44.5,30.00,SSW,205,0.0,0.0,74,0.00,,,0.00,0,Wunderground v.1.15,2013-02-06 02:54:00,
2013-02-05 19:00:00,52.7,44.6,29.99,SSW,205,0.0,0.0,74,0.00,,,0.00,0,Wunderground v.1.15,2013-02-06 03:00:00,
2013-02-05 19:05:00,52.6,44.5,29.99,SSW,205,0.0,0.0,74,0.00,,,0.00,0,Wunderground v.1.15,2013-02-06 03:05:00,
2013-02-05 19:14:00,52.7,44.6,30.00,SSW,205,0.0,0.0,74,0.00,,,0.00,0,Wunderground v.1.15,2013-02-06 03:14:00,
2013-02-05 19:19:00,52.6,44.5,29.99,SSW,205,0.0,0.0,74,0.00,,,0.00,0,Wunderground v.1.15,2013-02-06 03:19:00,
2013-02-05 19:24:00,52.6,44.5,29.99,SSW,205,0.0,0.0,74,0.00,,,0.00,0,Wunderground v.1.15,2013-02-06 03:24:00,
2013-02-05 19:30:00,52.6,44.5,30.00,SSW,205,0.0,0.0,74,0.00,,,0.00,0,Wunderground v.1.15,2013-02-06 03:30:00,
2013-02-05 19:40:00,52.5,44.4,30.00,SSW,205,0.0,0.0,74,0.00,,,0.00,0,Wunderground v.1.15,2013-02-06 03:40:00,
2013-02-05 19:45:00,52.5,44.4,30.00,SSW,205,0.0,0.0,74,0.00,,,0.00,0,Wunderground v.1.15,2013-02-06 03:45:00,
2013-02-05 19:50:00,52.6,44.5,30.00,SSW,205,0.0,0.0,74,0.00,,,0.00,0,Wunderground v.1.15,2013-02-06 03:50:00,
2013-02-05 20:00:00,52.7,44.6,30.00,SSW,205,0.0,0.0,74,0.00,,,0.00,0,Wunderground v.1.15,2013-02-06 04:00:00,
2013-02-05 20:05:00,52.7,44.6,30.00,SSW,205,0.0,0.0,74,0.00,,,0.00,0,Wunderground v.1.15,2013-02-06 04:05:00,
2013-02-05 20:10:00,52.7,44.6,29.99,SSW,205,0.0,0.0,74,0.00,,,0.00,0,Wunderground v.1.15,2013-02-06 04:10:00,
2013-02-05 20:15:00,52.7,44.6,29.99,SSW,205,0.0,0.0,74,0.00,,,0.00,0,Wunderground v.1.15,2013-02-06 04:15:00,
2013-02-05 20:24:00,52.6,44.2,30.00,SSW,205,0.0,0.0,73,0.00,,,0.00,0,Wunderground v.1.15,2013-02-06 04:24:00,
2013-02-05 20:30:00,52.5,44.4,30.00,SSW,205,2.0,2.0,74,0.00,,,0.00,0,Wunderground v.1.15,2013-02-06 04:30:00,
2013-02-05 20:40:00,52.4,44.4,30.00,SSW,205,0.0,0.0,74,0.00,,,0.00,0,Wunderground v.1.15,2013-02-06 04:40:00,
2013-02-05 20:45:00,52.5,44.4,30.01,SSW,205,0.0,0.0,74,0.00,,,0.00,0,Wunderground v.1.15,2013-02-06 04:45:00,
2013-02-05 20:55:00,52.4,44.4,30.01,SSW,205,0.0,0.0,74,0.00,,,0.00,0,Wunderground v.1.15,2013-02-06 04:55:00,
2013-02-05 21:00:00,52.4,44.4,30.01,SSW,205,0.0,0.0,74,0.00,,,0.00,0,Wunderground v.1.15,2013-02-06 05:00:00,
2013-02-05 21:05:00,52.4,44.4,30.01,SSW,205,0.0,0.0,74,0.00,,,0.00,0,Wunderground v.1.15,2013-02-06 05:05:00,
2013-02-05 21:10:00,52.5,44.4,30.01,SSW,205,0.0,0.0,74,0.00,,,0.00,0,Wunderground v.1.15,2013-02-06 05:10:00,
2013-02-05 21:15:00,52.5,44.4,30.01,SSW,205,0.0,0.0,74,0.00,,,0.00,0,Wunderground v.1.15,2013-02-06 05:15:00,
2013-02-05 21:25:00,52.6,44.2,30.01,SSW,205,0.0,0.0,73,0.00,,,0.00,0,Wunderground v.1.15,2013-02-06 05:25:00,
2013-02-05 21:30:00,52.7,44.3,30.01,SSW,205,0.0,0.0,73,0.00,,,0.00,0,Wunderground v.1.15,2013-02-06 05:30:00,
2013-02-05 21:40:00,52.8,44.4,30.01,SSW,205,0.0,0.0,73,0.00,,,0.00,0,Wunderground v.1.15,2013-02-06 05:40:00,
2013-02-05 21:45:00,52.8,44.4,30.01,SSW,205,0.0,0.0,73,0.00,,,0.00,0,Wunderground v.1.15,2013-02-06 05:45:00,
2013-02-05 21:50:00,52.8,44.4,30.01,SSW,205,0.0,0.0,73,0.00,,,0.00,0,Wunderground v.1.15,2013-02-06 05:50:00,
2013-02-05 21:59:00,52.8,44.4,30.00,SSW,205,0.0,0.0,73,0.00,,,0.00,0,Wunderground v.1.15,2013-02-06 05:59:00,
2013-02-05 22:05:00,52.8,44.4,30.00,SSW,205,0.0,0.0,73,0.00,,,0.00,0,Wunderground v.1.15,2013-02-06 06:05:00,
2013-02-05 22:15:00,52.8,44.4,30.01,SSW,205,0.0,0.0,73,0.00,,,0.00,0,Wunderground v.1.15,2013-02-06 06:15:00,
2013-02-05 22:20:00,52.8,44.4,30.01,SSW,205,0.0,0.0,73,0.00,,,0.00,0,Wunderground v.1.15,2013-02-06 06:20:00,
2013-02-05 22:30:00,52.8,44.4,30.00,SSW,205,0.0,0.0,73,0.00,,,0.00,0,Wunderground v.1.15,2013-02-06 06:30:00,
2013-02-05 22:39:00,52.7,44.3,30.01,SSW,205,0.0,0.0,73,0.00,,,0.00,0,Wunderground v.1.15,2013-02-06 06:39:00,
2013-02-05 22:45:00,52.7,44.3,30.01,SSW,205,0.0,0.0,73,0.00,,,0.00,0,Wunderground v.1.15,2013-02-06 06:45:00,
2013-02-05 22:50:00,52.7,44.3,30.01,SSW,205,0.0,0.0,73,0.00,,,0.00,0,Wunderground v.1.15,2013-02-06 06:50:00,
2013-02-05 22:55:00,52.7,44.3,30.01,SSW,205,0.0,0.0,73,0.00,,,0.00,0,Wunderground v.1.15,2013-02-06 06:55:00,
2013-02-05 23:00:00,52.7,44.3,30.01,SSW,205,0.0,0.0,73,0.00,,,0.00,0,Wunderground v.1.15,2013-02-06 07:00:00,
2013-02-05 23:05:00,52.7,44.3,30.00,SSW,205,0.0,0.0,73,0.00,,,0.00,0,Wunderground v.1.15,2013-02-06 07:05:00,
2013-02-05 23:15:00,52.7,44.3,30.00,SSW,205,0.0,0.0,73,0.00,,,0.00,0,Wunderground v.1.15,2013-02-06 07:15:00,
2013-02-05 23:25:00,52.7,44.3,30.00,SSW,205,0.0,0.0,73,0.00,,,0.00,0,Wunderground v.1.15,2013-02-06 07:25:00,
2013-02-05 23:30:00,52.7,44.3,30.00,SSW,205,0.0,0.0,73,0.00,,,0.00,0,Wunderground v.1.15,2013-02-06 07:30:00,
2013-02-05 23:40:00,52.6,43.8,30.00,SSW,205,0.0,0.0,72,0.00,,,0.00,0,Wunderground v.1.15,2013-02-06 07:40:00,
2013-02-05 23:45:00,52.6,43.8,30.00,SSW,205,0.0,0.0,72,0.00,,,0.00,0,Wunderground v.1.15,2013-02-06 07:45:00,
2013-02-05 23:55:00,52.6,44.2,30.00,SSW,205,0.0,0.0,73,0.00,,,0.00,0,Wunderground v.1.15,2013-02-06 07:55:00,